Theta_e
312 313 312 312 312 313 313 313 314 315 317 318 319 319 319 319 318 314 306 316 320 328 325 313 311 310 306 305 307 306 298 296 300 302 302 305 304 306 314 315 317 319 315 320 325
312 312 312 311 311 312 312 312 312 313 315 316 318 318 318 318 311 308 318 325 326 326 314 310 307 307 303 302 305 302 296 298 303 305 302 304 304 307 308 310 315 318 324 322 324
313 312 312 312 311 310 311 311 312 312 314 315 317 318 318 316 304 303 322 324 326 323 315 315 311 304 301 301 302 302 297 301 302 306 306 305 302 306 306 301 311 316 320 318 319
313 312 313 312 311 311 310 310 311 312 313 314 316 317 318 310 284 307 321 324 325 315 315 311 306 301 299 299 302 299 303 303 305 304 305 302 304 303 306 306 316 322 321 318 320
314 313 312 312 311 311 310 310 311 311 313 314 316 316 309 300 301 311 319 318 315 311 311 308 302 301 299 300 301 299 300 302 303 303 304 309 306 306 312 318 321 320 317 317 320
314 314 312 311 311 311 310 310 310 311 312 313 315 315 302 289 306 309 308 312 310 310 307 309 305 303 300 300 299 302 301 301 302 301 303 303 298 305 299 306 305 303 301 302 303
315 314 313 311 311 311 310 310 309 311 312 313 314 310 300 295 307 307 307 306 307 310 307 310 310 302 301 300 303 301 298 297 297 300 300 301 295 293 298 299 298 300 300 301 301
315 314 313 312 311 311 310 310 309 310 312 313 314 303 294 306 307 307 307 306 309 312 311 311 312 305 303 304 302 297 297 293 296 297 297 301 292 292 298 300 296 297 297 298 298
314 314 313 312 310 310 310 310 309 311 312 312 301 296 291 307 302 306 306 303 305 310 311 311 309 301 302 300 297 298 288 290 291 294 295 295 287 291 298 298 296 297 296 296 296
314 314 313 312 310 310 310 309 309 308 306 306 305 293 295 295 301 304 305 305 302 305 303 306 300 296 295 297 290 292 291 290 290 291 291 289 287 291 296 295 294 293 293 294 294
314 313 312 311 310 309 302 297 291 289 294 289 289 292 296 300 303 302 304 302 303 300 291 301 294 289 293 295 298 298 295 292 290 293 289 287 288 290 292 294 294 293 294 292 292
313 313 312 310 309 307 299 293 291 293 286 293 294 295 298 301 293 297 304 295 296 292 295 295 290 294 295 297 296 298 296 293 295 296 290 288 286 290 290 290 292 292 292 292 293
313 313 311 310 308 301 296 296 301 297 285 288 293 293 294 297 291 293 300 297 293 291 291 287 291 296 294 292 293 296 294 292 293 294 294 291 288 287 288 290 291 291 291 291 291
313 312 311 309 299 295 293 300 300 294 271 280 287 291 295 296 288 298 300 296 292 289 291 290 293 293 292 291 293 289 297 297 295 293 286 293 281 290 287 286 288 289 289 289 289
312 312 309 304 295 292 296 300 297 288 260 279 288 298 296 290 290 291 298 296 289 290 290 286 289 290 289 291 294 291 298 298 296 293 290 287 286 289 287 284 286 287 289 289 289
311 309 306 298 295 295 299 294 290 270 259 279 287 288 287 290 290 293 293 296 295 290 292 288 291 292 292 294 295 297 295 293 293 291 284 288 287 285 286 288 288 289 290 290 290
308 307 302 299 291 297 294 287 271 263 275 274 280 284 284 284 287 288 287 286 283 282 283 288 287 289 292 291 295 295 291 283 282 282 282 287 288 287 291 293 290 288 288 289 290
306 302 298 297 296 296 288 276 262 263 267 280 281 282 279 285 285 286 284 282 287 283 279 282 279 288 291 291 290 291 291 282 276 278 281 288 285 286 285 292 291 290 289 289 288
302 292 292 294 296 292 282 266 266 267 281 281 280 279 277 285 284 284 284 279 285 288 279 281 281 287 289 292 293 290 288 289 282 277 279 285 284 284 285 287 289 289 288 288 288
291 290 291 295 293 287 276 273 271 282 285 284 276 278 272 277 281 283 282 286 287 290 291 287 279 286 287 291 292 292 293 285 284 276 276 279 279 282 281 283 286 287 287 288 288
289 282 291 294 289 280 269 265 277 283 286 283 275 278 279 279 283 282 282 286 289 291 293 290 284 283 286 285 285 288 288 287 286 283 278 275 278 283 284 285 286 287 287 287 286
285 275 291 290 276 260 267 279 284 282 286 286 286 284 279 282 281 283 280 286 291 292 287 290 286 274 282 284 286 288 287 288 283 278 280 279 278 283 285 287 288 286 287 287 287
279 281 289 288 270 265 268 277 282 281 283 283 282 284 284 281 279 283 284 290 291 290 288 289 284 277 280 283 286 285 287 289 287 285 281 279 280 283 285 285 287 286 286 287 286
281 273 278 278 276 275 270 268 271 282 282 283 283 283 282 280 285 281 283 288 290 290 291 290 283 279 275 279 281 282 283 286 286 282 280 282 281 281 283 284 285 286 287 286 285
279 273 277 269 272 274 275 270 268 272 281 281 281 281 279 277 280 279 283 287 288 289 289 287 275 281 280 281 283 282 282 283 284 282 281 282 281 283 283 284 285 286 286 285 284
278 276 279 277 279 276 278 275 275 275 279 277 279 280 280 275 279 277 279 281 282 286 285 286 270 278 278 281 282 283 284 283 283 282 279 280 280 282 283 282 283 285 286 285 284
281 283 281 278 278 275 274 278 280 281 282 282 280 279 280 279 282 282 282 282 283 280 283 282 277 278 275 277 277 279 281 283 283 281 281 279 282 280 280 282 283 284 286 285 285
Wind_Speed
5 6 5 6 8 8 9 10 10 12 13 13 13 14 14 14 15 3 5 1 5 10 11 8 3 5 1 2 2 4 4 2 4 5 2 2 4 3 2 7 4 4 3 0 16
5 5 5 4 6 8 9 10 11 11 13 13 14 13 14 14 3 5 8 5 6 9 6 6 4 6 2 1 1 4 4 6 2 5 1 0 3 6 4 4 4 5 9 6 10
6 6 6 6 5 7 8 9 11 12 13 14 14 13 12 9 3 4 5 7 7 6 2 2 4 1 2 1 3 3 5 4 1 2 3 4 3 3 7 1 5 11 11 5 7
7 6 7 6 6 7 8 9 10 12 12 13 13 13 13 2 5 3 7 8 10 3 3 3 2 2 3 5 3 3 4 3 1 2 2 5 5 6 6 5 2 13 7 6 9
7 7 6 7 7 7 8 9 10 11 11 12 13 12 5 0 7 4 9 9 5 2 2 3 2 3 4 4 3 4 2 3 2 3 5 14 11 7 7 8 11 12 12 9 7
9 8 7 6 7 8 9 9 10 10 10 12 12 10 2 3 3 5 8 4 6 3 2 3 2 2 4 3 5 5 3 2 1 1 4 10 6 4 7 8 13 14 14 12 12
10 9 8 7 7 8 9 11 11 11 10 11 10 3 3 10 3 7 3 2 3 2 3 2 3 4 6 3 2 2 4 1 4 4 5 2 8 7 4 8 13 13 10 11 12
10 10 9 8 6 7 9 11 11 11 11 10 9 2 6 4 6 8 2 4 3 1 2 5 4 3 4 7 3 4 3 5 3 3 2 4 3 7 6 10 10 9 7 9 11
10 9 10 7 5 6 8 11 12 11 10 7 3 1 8 10 3 5 4 2 4 2 2 3 1 4 1 3 2 3 4 4 2 6 0 6 5 4 8 9 8 5 7 7 7
10 10 10 8 4 4 8 11 10 7 4 1 2 2 4 5 5 6 2 1 1 3 1 1 3 3 4 7 12 8 2 1 5 3 9 6 5 6 8 11 6 5 7 7 7
12 11 10 6 3 2 5 4 5 4 3 4 2 3 3 9 3 3 1 3 2 3 5 2 4 13 13 6 9 10 5 1 2 2 8 6 9 5 5 8 8 4 5 6 6
12 12 9 6 3 2 3 3 1 2 5 3 5 5 5 3 5 4 2 3 3 3 4 3 13 2 1 2 2 13 10 1 4 7 7 6 7 5 4 4 4 4 4 5 4
13 11 9 8 5 4 2 2 0 2 0 6 3 2 4 0 3 5 3 2 3 5 6 5 3 7 5 3 8 12 17 14 3 4 10 9 3 3 3 4 4 4 3 4 5
13 11 9 9 4 1 2 3 2 2 6 5 3 3 3 2 5 4 4 2 3 8 5 6 5 4 4 10 7 14 7 20 13 7 4 1 3 5 5 5 5 6 5 6 6
12 10 8 4 5 2 2 4 1 5 5 6 3 3 5 1 6 1 3 1 3 5 5 5 5 9 7 10 5 5 7 17 18 16 7 7 1 2 11 8 8 8 7 6 6
12 12 9 4 4 2 4 3 5 9 6 3 4 5 6 2 3 5 2 1 2 1 2 3 1 5 9 6 8 5 7 8 4 3 7 10 9 6 10 17 10 10 10 11 9
12 8 5 3 2 4 2 5 7 6 5 7 4 4 5 5 4 2 2 5 5 6 5 4 4 2 3 7 5 6 6 4 5 5 4 2 9 6 7 9 12 15 12 9 10
10 7 6 3 1 2 4 8 6 4 5 3 4 5 4 2 5 4 2 5 5 3 3 6 4 9 5 6 6 17 12 5 8 7 7 5 8 4 3 5 14 15 11 8 8
8 3 3 5 5 3 6 6 8 7 2 6 7 4 4 3 6 4 8 4 8 8 6 6 4 2 2 2 3 7 11 4 6 1 4 4 3 2 3 8 14 16 15 12 10
3 3 3 6 4 5 6 2 2 4 3 1 2 2 3 4 3 5 11 4 6 6 1 3 3 1 2 2 4 3 6 3 2 6 4 2 5 6 6 11 13 15 16 14 11
4 4 3 5 3 6 3 6 3 3 2 2 2 4 5 5 5 4 6 2 2 6 7 4 2 1 3 5 7 3 3 4 3 2 4 3 7 3 15 17 19 17 13 14 13
3 3 3 3 5 1 2 1 2 3 1 3 4 2 3 4 5 5 2 1 4 2 7 4 2 3 6 4 2 3 5 4 3 3 1 1 5 3 3 8 11 12 13 11 11
3 1 2 4 3 3 5 2 2 2 2 1 3 1 2 5 5 3 4 5 6 2 3 5 4 3 1 2 5 4 4 5 5 3 2 3 6 5 7 11 11 14 13 12 11
4 3 5 5 0 6 3 3 4 3 3 1 4 2 3 4 3 4 2 3 3 4 4 2 1 3 5 1 3 5 6 7 6 3 6 5 5 1 6 11 12 14 14 13 12
4 3 3 2 3 2 3 4 1 2 2 1 0 2 4 4 5 5 5 1 2 3 2 1 3 2 1 4 1 2 8 10 8 6 8 8 9 6 15 14 12 10 12 13 12
5 4 2 2 0 3 2 3 5 4 2 2 1 2 4 0 3 3 6 6 4 4 2 1 2 2 1 4 3 3 6 9 6 4 2 3 6 3 7 8 10 15 16 16 15
1 2 4 2 1 3 4 4 4 3 2 1 1 2 2 2 3 4 3 5 4 4 2 0 3 2 3 0 2 2 7 6 5 4 8 6 7 6 5 12 16 16 17 15 13
Wind_Direction
298 321 324 333 339 342 341 341 341 342 342 340 336 338 343 342 327 313 270 334 321 331 334 290 324 343 65 49 27 125 64 207 179 144 244 168 119 14 40 91 60 10 42 120 124
269 299 290 312 332 334 335 339 340 338 336 339 334 335 339 339 324 271 260 339 341 342 352 345 358 345 16 56 40 98 124 222 234 173 169 62 129 143 108 84 66 80 74 75 128
249 264 265 290 312 327 328 331 330 335 335 337 336 332 332 332 339 269 360 355 345 334 269 292 296 352 198 183 179 162 186 203 314 259 156 162 95 81 111 133 192 157 136 108 116
252 251 279 282 304 318 327 330 330 331 335 335 335 334 323 302 222 346 346 342 328 324 303 288 246 135 182 185 181 155 224 202 292 329 104 139 114 66 49 316 137 133 107 101 129
253 238 253 273 290 304 320 331 333 331 333 335 335 340 347 312 257 340 345 330 341 28 339 279 193 151 195 197 151 179 215 187 202 100 91 90 66 82 46 65 89 79 70 67 67
240 229 227 248 276 294 310 324 332 332 326 336 333 339 318 257 289 4 356 5 9 6 93 305 320 8 268 205 166 202 189 135 9 82 53 95 37 116 21 49 66 65 58 55 58
231 219 212 230 254 283 305 319 327 331 323 327 330 343 280 244 353 318 350 307 316 1 2 49 335 61 338 202 203 138 156 52 47 320 102 94 40 42 37 64 73 71 64 58 45
221 211 201 220 243 279 298 311 317 322 319 315 321 345 252 275 310 309 317 326 5 297 227 292 9 61 324 313 45 126 92 151 351 347 348 136 147 8 91 88 73 65 51 56 41
204 194 196 211 230 268 293 308 308 313 312 319 0 38 272 309 329 300 194 272 328 339 284 293 148 151 288 229 69 39 185 158 182 17 48 68 140 319 96 95 85 64 63 48 42
187 182 185 201 225 279 301 302 298 329 336 313 256 343 316 321 302 323 303 144 41 347 81 224 65 166 141 199 203 149 234 181 157 3 41 75 110 88 73 105 83 71 59 52 43
177 172 177 187 210 305 357 2 10 340 24 201 241 274 315 300 263 318 344 102 98 90 160 197 183 205 193 217 213 200 155 10 69 126 75 71 96 70 97 84 105 84 78 79 45
162 163 170 163 155 85 71 84 172 191 317 295 254 277 276 285 310 312 104 145 166 175 163 163 227 202 155 190 195 175 187 340 94 26 86 106 79 78 52 80 99 139 123 90 86
148 151 156 148 125 55 100 93 174 169 312 303 283 266 279 144 274 275 172 207 168 175 199 186 175 177 185 185 188 196 191 176 197 83 50 121 96 160 81 102 113 88 98 72 89
137 139 145 134 63 255 56 329 316 103 67 304 338 333 347 262 277 244 217 218 236 189 169 228 247 163 165 224 196 210 189 185 163 162 180 324 201 206 177 179 165 159 155 134 115
128 129 129 99 143 71 283 308 38 57 33 280 323 298 304 203 308 354 274 69 216 188 164 222 183 184 204 212 196 230 151 162 177 187 140 189 264 259 158 205 206 192 168 149 125
116 118 117 58 57 282 296 13 44 43 265 348 337 357 344 304 282 309 12 56 203 327 31 258 257 193 190 175 197 134 97 50 69 160 207 173 186 211 191 195 175 168 171 156 140
105 87 70 88 135 300 17 45 36 117 308 325 338 358 353 274 286 237 254 181 188 184 209 195 243 251 180 137 145 183 159 143 198 215 227 202 201 245 200 180 168 162 168 167 150
105 80 53 70 331 349 50 50 80 232 240 308 311 298 229 258 245 256 214 220 218 160 146 181 204 170 200 199 181 196 199 153 186 184 188 147 226 220 253 280 141 151 154 138 142
97 8 37 346 347 58 69 58 200 203 295 329 326 308 298 249 243 235 219 219 191 179 180 186 265 325 191 151 143 189 200 137 110 56 91 195 308 240 99 112 145 149 152 157 151
86 61 351 326 1 63 73 236 222 234 328 264 275 290 288 292 259 230 176 189 176 162 100 128 273 210 138 140 28 168 143 125 24 161 189 249 283 233 194 163 157 162 164 156 143
59 61 278 349 50 49 136 224 265 313 219 289 293 285 264 294 275 264 158 124 196 148 169 157 177 257 96 206 174 119 151 91 86 150 165 156 248 226 188 182 177 172 161 152 146
99 53 310 25 52 3 128 170 318 279 194 280 260 311 277 292 278 283 83 13 176 237 171 177 202 210 211 290 301 128 147 142 169 207 119 69 281 341 222 177 168 154 147 148 148
97 188 330 78 112 306 309 283 269 233 213 241 273 132 284 283 291 322 325 63 31 195 162 163 225 120 339 126 358 151 162 131 86 85 157 150 259 348 125 142 157 152 155 155 151
91 41 334 47 82 134 144 277 305 278 254 325 293 327 306 276 240 319 312 66 67 7 160 324 175 151 201 75 134 149 153 162 141 127 149 228 296 354 156 172 169 165 160 157 158
38 249 197 253 319 115 125 144 350 315 278 195 186 324 271 297 332 6 338 52 101 76 21 258 166 110 21 320 155 142 160 167 175 177 170 210 203 224 197 183 170 149 148 154 163
129 126 18 113 108 86 252 233 172 276 153 303 143 306 1 73 12 318 342 26 37 325 358 75 299 88 60 335 290 150 189 175 176 141 93 112 242 199 137 123 156 170 170 171 174
202 31 106 298 135 96 230 192 205 176 207 218 274 312 350 260 256 263 253 277 280 313 333 286 145 128 207 351 23 203 205 186 155 175 148 165 222 143 152 174 182 178 177 174 175